Home > Weather > Rockford > Past weeks

Flag for USA Past Weather in Rockford, Illinois, USA — Yesterday and Last 2 Weeks

Now
70 °F

Mostly cloudy.


Feels Like: 67 °F
Forecast: 65 / 78 °F
Wind: 9 mph from Northeast

Location: Greater Rockford Airport

Current Time: Jul 29, 2016 at 9:00:04 PM

Latest Report: Jul 29, 2016 at 7:54 PM


Visibility: 8 mi

Pressure: 29.97 "Hg

Humidity: 90%

Dew Point: 67 °F

Location of RockfordLocation

Past Weather in Rockford — Graph

°F

Rockford Temperature Yesterday

Maximum temperature yesterday: 84 °F (at 11:54 AM)
Minimum temperature yesterday: 70 °F (at 3:54 AM)
Average temperature yesterday: 75 °F

High & Low Weather Summary for the Past Weeks

 TemperatureHumidityPressure
High98 °F (Jul 24, 1:55 PM)100% (Jul 16, 6:54 AM)30.25 "Hg (Jul 16, 6:54 AM)
Low55 °F (Jul 16, 5:54 AM)45% (Jul 16, 4:54 PM)29.84 "Hg (Jul 24, 4:54 PM)
Average76 °F74%30.02 "Hg
* Reported Jul 14 7:54 PM — Jul 29 7:54 PM, Rockford, Weather by CustomWeather, © 2016

Note: Actual official high and low records may vary slightly from our data, if they occured in-between our weather recording intervals... More about our weather records

Advertising

Rockford Weather History for the Previous 24 Hours

Scroll right to see more
 ConditionsComfort  
Time TempWeatherWind HumidityBarometerVisibility
7:54 PM
Fri, Jul 29
70 °FMostly cloudy.9 mph90%29.97 "Hg8 mi
6:54 PM71 °FCloudy.10 mph87%29.96 "Hg8 mi
5:54 PM71 °FLight rain. Fog.12 mph90%29.94 "Hg6 mi
5:03 PM70 °FThunderstorms. Fog.12 mph88%29.95 "Hg2 mi
4:54 PM68 °FThunderstorms. Fog.16 mph87%29.95 "Hg2 mi
3:54 PM77 °FCloudy.12 mph79%29.93 "Hg9 mi
2:54 PM74 °FThunderstorms. More clouds than sun.No wind88%29.93 "Hg7 mi
1:54 PM76 °FThunderstorms. Mostly cloudy.8 mph80%29.93 "Hg6 mi
12:54 PM78 °FThunderstorms. Mostly cloudy.8 mph69%29.93 "Hg10 mi
11:54 AM79 °FMore clouds than sun.8 mph72%29.94 "Hg10 mi
10:54 AM77 °FCloudy.6 mph74%29.96 "Hg10 mi
9:54 AM74 °FMostly cloudy.6 mph76%29.95 "Hg10 mi
8:54 AM73 °FOvercast.8 mph79%29.94 "Hg9 mi
7:54 AM73 °FLow clouds.7 mph79%29.94 "Hg8 mi
6:54 AM71 °FOvercast.9 mph81%29.93 "Hg6 mi
5:54 AM70 °FMostly cloudy.9 mph81%29.93 "Hg8 mi
4:54 AM69 °FMostly cloudy.8 mph84%29.92 "Hg8 mi
3:54 AM69 °FMostly cloudy.9 mph84%29.93 "Hg8 mi
2:54 AM69 °FFog.12 mph87%29.94 "Hg5 mi
1:54 AM69 °FFog.9 mph87%29.93 "Hg6 mi
12:54 AM71 °FLow clouds.7 mph81%29.94 "Hg10 mi
11:54 PM
Thu, Jul 28
70 °FOvercast.7 mph84%29.93 "Hg10 mi
10:54 PM70 °FPassing clouds.8 mph84%29.93 "Hg10 mi
9:54 PM71 °FPassing clouds.9 mph81%29.92 "Hg10 mi
Weather by CustomWeather, © 2016

See weather overviewHow to use our weather pages